Location: Chandler
(33.3060°N, 111.8410°W)
Time: 21:50:13
(UTC-07:00)

Amateur Radio Satellites - All Passes

Search period start: 29 January 2015 21:20
Search period end: 30 January 2015 21:20
Location: Chandler, 33.3060°N, 111.8410°W

Satellite Date Start Highest point End Downlink Frequencies (MHz)
Time Altitude Azimuth
JUGNU 29 Jan 21:21:56 21:25:27 16° 192° (SSW) 21:28:55 437.505
GOMX 1 29 Jan 21:22:35 21:27:10 36° 264° (W) 21:32:01 467.674
UWE-3 29 Jan 21:25:09 21:29:35 47° 75° (ENE) 21:34:07 435.000/436.395/437.385
AISAT 29 Jan 21:26:14 21:29:00 17° 69° (ENE) 21:31:57 437.250
BRITE-PL 29 Jan 21:31:14 21:35:03 21° 269° (W) 21:38:55 437.365/2234.400
DOVE 4 29 Jan 21:31:57 21:36:36 40° 263° (W) 21:41:30 437.250
CUTE 1.7 + AOD 2 29 Jan 21:33:54 21:37:14 21° 266° (W) 21:40:26 437.475
Oscar 11 29 Jan 21:36:05 21:40:26 72° 259° (W) 21:44:47 145.826/435.025
ISS 29 Jan 21:36:29 21:39:43 64° 317° (NW) 21:43:00 145.825
VELOX 1 29 Jan 21:52:54 21:56:50 33° 73° (ENE) 22:00:51 145.980
50 SAT 29 Jan 21:57:10 22:00:50 32° 73° (ENE) 22:04:34 437.505
YUBILEINY 29 Jan 21:58:59 22:04:18 16° 295° (WNW) 22:09:02 435.215
CUBEBUG 1 29 Jan 22:01:04 22:03:28 15° 69° (ENE) 22:06:05 437.445
SRMSAT 29 Jan 22:02:34 22:06:47 20° 188° (S) 22:10:56 437.500
SEEDS 29 Jan 22:06:15 22:07:20 11° 270° (W) 22:08:05 437.485
UKube-1 29 Jan 22:11:59 22:16:09 47° 260° (W) 22:20:21 .
HO-68 29 Jan 22:17:23 22:21:32 15° 270° (W) 22:25:11 435.675
CUBEBUG 2 29 Jan 22:23:08 22:27:23 32° 264° (W) 22:31:38 437.445
POLYITAN 1 29 Jan 22:23:08 22:25:14 14° 92° (E) 22:27:34 437.675
HUMSAT D 29 Jan 22:25:47 22:30:08 78° 258° (WSW) 22:34:30 437.325/437.525
ZACube-1 29 Jan 22:27:51 22:32:10 39° 263° (W) 22:36:29 437.345
UNISAT 6 29 Jan 22:32:34 22:36:31 32° 97° (E) 22:40:25 437.425
DX 1 29 Jan 22:34:14 22:37:52 25° 264° (W) 22:41:26 434.975-435.025
AIST 1 29 Jan 22:38:12 22:42:29 54° 81° (E) 22:46:46
FUNcube-1 29 Jan 22:39:57 22:43:59 29° 264° (W) 22:47:59 145.935
POPSAT HIP 1 29 Jan 22:41:45 22:45:09 23° 95° (E) 22:48:37 437.405
DUCHIFAT 1 29 Jan 22:43:58 22:47:26 24° 95° (E) 22:50:57 145.980
DELFI C3 29 Jan 22:48:43 22:50:13 11° 269° (W) 22:51:28 145.870
AISAT 29 Jan 23:01:18 23:05:23 36° 262° (W) 23:09:29 437.250
UWE-3 29 Jan 23:03:54 23:06:26 14° 269° (W) 23:08:44 435.000/436.395/437.385
ESTCUBE 1 29 Jan 23:05:45 23:10:14 83° 259° (W) 23:14:44 437.505/2401.250
ANTELSAT 29 Jan 23:08:15 23:12:41 90° 335° (NNW) 23:17:00 437.575/2403.000
TIGRISAT 29 Jan 23:15:38 23:20:03 76° 284° (WNW) 23:24:21 435.000
NANOSAT C BR1 29 Jan 23:18:04 23:22:21 66° 101° (E) 23:26:36 145.865
SPROUT 29 Jan 23:18:38 23:22:12 26° 72° (ENE) 23:25:50 437.525
VELOX 1 29 Jan 23:30:30 23:33:32 17° 267° (W) 23:36:26 145.980
QB50P2 29 Jan 23:32:46 23:37:06 79° 282° (WNW) 23:41:22 145.880/145.840
50 SAT 29 Jan 23:33:30 23:36:05 15° 267° (W) 23:38:29 437.505
CUBEBUG 1 29 Jan 23:35:31 23:39:34 38° 262° (W) 23:43:38 437.445
QB50P1 29 Jan 23:41:55 23:46:10 61° 284° (WNW) 23:50:24 145.935-145.965
BUGSAT 1 29 Jan 23:50:03 23:54:19 65° 284° (WNW) 23:58:33 437.445
TISAT 1 29 Jan 23:52:41 23:56:53 69° 77° (ENE) 00:01:09 437.305
SRMSAT 29 Jan 23:53:35 23:55:19 11° 196° (SSW) 23:56:55 437.500
POLYITAN 1 29 Jan 23:57:22 00:01:25 39° 286° (WNW) 00:05:23 437.675
GONETS M04 30 Jan 00:07:35 00:12:52 19° 84° (E) 00:18:42
UNISAT 6 30 Jan 00:10:04 00:13:06 18° 291° (WNW) 00:15:56 437.425
POPSAT HIP 1 30 Jan 00:17:30 00:21:00 24° 289° (WNW) 00:24:21 437.405
DUCHIFAT 1 30 Jan 00:19:49 00:23:13 22° 289° (WNW) 00:26:29 145.980
SWISSCUBE 30 Jan 00:36:57 00:41:07 32° 72° (ENE) 00:45:21 437.505
BEESAT 30 Jan 00:52:16 00:56:44 43° 73° (ENE) 01:01:15 436.000
SPROUT 30 Jan 00:54:59 00:58:17 21° 266° (W) 01:01:30 437.525
ITUPSAT 1 30 Jan 00:56:33 01:01:05 47° 74° (ENE) 01:05:41 437.325
O/OREOS (USA 219) 30 Jan 01:10:50 01:11:02 10° 55° (NE) 01:11:31 437.305
BEESAT 2 30 Jan 01:13:42 01:16:15 17° 110° (ESE) 01:18:58 435.950
BEESAT 3 30 Jan 01:26:05 01:29:30 27° 112° (ESE) 01:33:02 437.485
Oscar 19 30 Jan 01:50:58 01:56:07 70° 102° (ESE) 02:01:12 437.125/150
GONETS M04 30 Jan 02:00:12 02:08:58 74° 278° (W) 02:17:43
ITAMSAT 1 30 Jan 02:09:07 02:13:47 33° 97° (E) 02:18:30 435.822/435.867
SWISSCUBE 30 Jan 02:15:27 02:19:04 21° 266° (W) 02:22:32 437.505
STARS 30 Jan 02:29:06 02:33:28 60° 75° (ENE) 02:37:52 437.465
BEESAT 30 Jan 02:32:00 02:34:51 15° 268° (W) 02:37:29 436.000
ITUPSAT 1 30 Jan 02:36:45 02:39:19 14° 269° (W) 02:41:36 437.325
KKS-1 30 Jan 02:37:14 02:41:41 68° 259° (W) 02:46:10 437.445
M-CUBED/EXP-1 PRIME 30 Jan 02:45:04 02:49:09 60° 72° (ENE) 02:52:54 437.505
O/OREOS (USA 219) 30 Jan 02:46:27 02:51:02 69° 253° (WSW) 02:55:35 437.305
HORYU 2 30 Jan 02:48:17 02:50:22 14° 92° (E) 02:52:42 437.375
AIST 2 30 Jan 02:50:00 02:54:13 90° 127° (SE) 02:58:32 435.215
BEESAT 2 30 Jan 02:50:28 02:54:14 33° 304° (NW) 02:58:01 435.950
BEESAT 3 30 Jan 03:04:26 03:07:39 21° 307° (NW) 03:10:50 437.485
DANDE 30 Jan 03:05:00 03:10:08 19° 84° (E) 03:15:59 436.750
Gurwin Techsat 1B 30 Jan 03:10:29 03:15:50 86° 287° (WNW) 03:21:09 435.225
AUBIESAT-1 30 Jan 03:17:36 03:21:39 55° 254° (WSW) 03:25:23 437.475
AO-7 30 Jan 03:23:57 03:29:53 22° 93° (E) 03:36:09 29.400- 29.500
CUSAT 1 30 Jan 03:27:28 03:34:26 35° 89° (E) 03:41:55 437.405
Oscar 19 30 Jan 03:32:59 03:34:57 12° 295° (WNW) 03:36:34 437.125/150
RS-15 30 Jan 03:47:21 03:56:44 36° 108° (ESE) 04:06:22 29.354- 29.394
ITAMSAT 1 30 Jan 03:48:55 03:53:09 25° 291° (WNW) 03:57:15 435.822/435.867
GONETS M04 30 Jan 04:05:15 04:07:41 11° 299° (WNW) 04:09:16
ISS 30 Jan 04:08:02 04:10:35 20° 34° (NE) 04:13:09 145.825
PCSat 30 Jan 04:14:55 04:20:19 85° 117° (ESE) 04:25:47 145.827
MOZHAYETS 4 30 Jan 04:22:28 04:26:58 57° 76° (ENE) 04:31:29
HORYU 2 30 Jan 04:23:06 04:27:18 42° 286° (WNW) 04:31:27 437.375
JAS-2 30 Jan 04:26:14 04:31:25 32° 97° (E) 04:37:16 435.910
DANDE 30 Jan 04:44:42 04:52:44 81° 279° (W) 05:01:30 436.750
CUSAT 1 30 Jan 05:09:30 05:17:17 48° 284° (WNW) 05:25:21 437.405
STRAND 1 30 Jan 05:13:38 05:14:22 10° 65° (ENE) 05:15:26 437.568
AO-7 30 Jan 05:15:04 05:23:19 66° 290° (WNW) 05:31:28 29.400- 29.500
ISS 30 Jan 05:44:09 05:47:07 31° 229° (SW) 05:50:04 145.825
PRISM 30 Jan 05:56:12 06:00:14 61° 76° (ENE) 06:04:18 437.425
RS-15 30 Jan 05:58:03 06:08:44 55° 306° (NW) 06:19:23 29.354- 29.394
Cubesat XI-IV 30 Jan 05:59:04 06:03:33 27° 95° (E) 06:08:07 437.490
PCSat 30 Jan 06:02:09 06:04:33 12° 313° (NW) 06:06:40 145.827
MOZHAYETS 4 30 Jan 06:03:42 06:04:39 10° 270° (W) 06:05:15
JAS-2 30 Jan 06:11:19 06:16:30 33° 288° (WNW) 06:22:06 435.910
YUBILEINY 30 Jan 06:13:25 06:21:06 34° 74° (ENE) 06:28:59 435.215
CUBESAT XI-V 30 Jan 06:17:34 06:22:09 72° 76° (ENE) 06:26:45 437.345
CUTE-I 30 Jan 06:18:21 06:23:25 42° 98° (E) 06:28:30 437.470
DANDE 30 Jan 06:32:45 06:37:42 16° 298° (WNW) 06:42:11 436.750
VERMONT LUNAR 30 Jan 06:47:42 06:50:04 18° 143° (SE) 06:52:30 437.305
STRAND 1 30 Jan 06:47:55 06:53:00 77° 258° (WSW) 06:58:08 437.568
AO-7 30 Jan 07:12:00 07:14:48 12° 306° (NW) 07:16:59 29.400- 29.500
Cubesat XI-IV 30 Jan 07:38:57 07:43:39 31° 290° (WNW) 07:48:17 437.490
PHONESAT 2.4 30 Jan 07:51:55 07:55:08 32° 147° (SSE) 07:58:25 2401.200-2431.200
CUTE-I 30 Jan 07:59:15 08:03:14 21° 292° (WNW) 08:07:02 437.470
HO-68 30 Jan 08:00:10 08:04:24 17° 91° (E) 08:09:04 435.675
BRITE-PL 30 Jan 08:01:59 08:05:45 19° 90° (E) 08:09:37 437.365/2234.400
YUBILEINY 30 Jan 08:09:52 08:18:06 44° 270° (W) 08:26:11 435.215
SEEDS 30 Jan 08:18:23 08:19:26 11° 90° (E) 08:20:46 437.485
RS-15 30 Jan 08:18:31 08:24:34 15° 334° (NNW) 08:30:12 29.354- 29.394
VERMONT LUNAR 30 Jan 08:24:28 08:27:56 74° 336° (NNW) 08:31:25 437.305
COMPASS 1 30 Jan 08:41:46 08:44:37 18° 93° (E) 08:47:35 437.405
CANX-2 30 Jan 08:58:27 09:02:33 49° 99° (E) 09:06:39 2200.000
AAUSAT CUBESAT 2 30 Jan 09:06:30 09:10:13 32° 97° (E) 09:13:58 437.432
CINEMA 3 30 Jan 09:14:46 09:18:38 25° 94° (E) 09:22:26 145.822/145.860
UWE-3 30 Jan 09:21:50 09:23:35 12° 90° (E) 09:25:35 435.000/436.395/437.385
CUTE 1.7 + AOD 2 30 Jan 09:22:21 09:26:35 89° 283° (WNW) 09:30:47 437.475
UNISAT 6 30 Jan 09:28:04 09:31:25 20° 70° (ENE) 09:34:54 437.425
Oscar 11 30 Jan 09:28:12 09:31:50 27° 96° (E) 09:35:32 145.826/435.025
GOMX 1 30 Jan 09:28:37 09:34:01 82° 283° (WNW) 09:39:05 467.674
PHONESAT 2.4 30 Jan 09:30:08 09:33:38 48° 341° (NNW) 09:37:09 2401.200-2431.200
POPSAT HIP 1 30 Jan 09:33:05 09:34:11 11° 68° (ENE) 09:35:33 437.405
DUCHIFAT 1 30 Jan 09:34:50 09:36:08 11° 68° (ENE) 09:37:42 145.980
DOVE 4 30 Jan 09:35:32 09:40:43 84° 104° (ESE) 09:45:34 437.250
BRITE-PL 30 Jan 09:39:10 09:44:34 46° 287° (WNW) 09:49:38 437.365/2234.400
HO-68 30 Jan 09:45:40 09:52:48 71° 287° (WNW) 09:59:54 435.675
SEEDS 30 Jan 09:51:34 09:55:35 45° 285° (WNW) 09:59:33 437.485
SO-50 30 Jan 09:59:01 10:03:29 68° 116° (ESE) 10:08:07 436.795
ANTELSAT 30 Jan 10:02:50 10:07:22 49° 74° (ENE) 10:11:55 437.575/2403.000
VERMONT LUNAR 30 Jan 10:03:22 10:06:22 26° 352° (N) 10:09:24 437.305
UKube-1 30 Jan 10:03:56 10:07:59 38° 98° (E) 10:12:04 .
NANOSAT C BR1 30 Jan 10:07:10 10:10:49 29° 72° (ENE) 10:14:33 145.865
TIGRISAT 30 Jan 10:09:46 10:14:23 57° 75° (ENE) 10:19:01 435.000
HUMSAT D 30 Jan 10:15:23 10:18:42 23° 95° (E) 10:22:02 437.325/437.525
COMPASS 1 30 Jan 10:16:49 10:20:23 27° 287° (WNW) 10:23:52 437.405
CUBEBUG 2 30 Jan 10:18:30 10:23:02 78° 100° (E) 10:27:24 437.445
ZACube-1 30 Jan 10:20:58 10:25:17 54° 99° (E) 10:29:27 437.345
QB50P2 30 Jan 10:21:44 10:25:47 44° 74° (ENE) 10:29:55 145.880/145.840
DX 1 30 Jan 10:25:54 10:30:19 76° 102° (ESE) 10:34:42 434.975-435.025
DELFI C3 30 Jan 10:30:12 10:34:11 59° 284° (WNW) 10:38:09 145.870
QB50P1 30 Jan 10:30:31 10:34:41 56° 75° (ENE) 10:38:54 145.935-145.965
FUNcube-1 30 Jan 10:32:28 10:36:51 76° 100° (E) 10:41:07 145.935
BUGSAT 1 30 Jan 10:36:13 10:40:08 48° 75° (ENE) 10:44:09 437.445
CANX-2 30 Jan 10:36:49 10:38:07 11° 292° (WNW) 10:39:10 2200.000
RS-15 30 Jan 10:42:14 10:44:02 10° 12° (NNE) 10:46:12 29.354- 29.394
AAUSAT CUBESAT 2 30 Jan 10:43:03 10:45:41 16° 290° (WNW) 10:48:07 437.432
POLYITAN 1 30 Jan 10:45:59 10:50:16 90° 92° (E) 10:54:38 437.675
CINEMA 3 30 Jan 10:51:49 10:55:48 26° 289° (WNW) 10:59:32 145.822/145.860
AISAT 30 Jan 10:56:08 11:00:35 59° 101° (E) 11:05:02 437.250
UWE-3 30 Jan 10:56:14 11:00:29 44° 286° (WNW) 11:04:35 435.000/436.395/437.385
ESTCUBE 1 30 Jan 11:03:12 11:07:05 28° 96° (E) 11:11:02 437.505/2401.250
AIST 1 30 Jan 11:03:38 11:07:34 38° 93° (E) 11:11:33
UNISAT 6 30 Jan 11:03:43 11:08:01 34° 263° (W) 11:12:16 437.425
Oscar 11 30 Jan 11:04:41 11:07:54 20° 289° (WNW) 11:10:59 145.826/435.025
POPSAT HIP 1 30 Jan 11:05:31 11:09:41 52° 260° (W) 11:13:54 437.405
DUCHIFAT 1 30 Jan 11:07:29 11:11:37 49° 260° (W) 11:15:47 145.980
PHONESAT 2.4 30 Jan 11:09:37 11:12:41 25° 357° (N) 11:15:46 2401.200-2431.200
BEESAT 2 30 Jan 11:13:56 11:17:51 39° 57° (ENE) 11:21:44 435.950
50 SAT 30 Jan 11:15:22 11:19:25 82° 283° (WNW) 11:23:24 437.505
AIST 2 30 Jan 11:16:48 11:19:44 18° 51° (NE) 11:22:45 435.215
VELOX 1 30 Jan 11:23:43 11:28:12 66° 285° (WNW) 11:32:38 145.980
BEESAT 3 30 Jan 11:26:39 11:30:46 65° 60° (ENE) 11:34:49 437.485
CUBEBUG 1 30 Jan 11:28:23 11:32:44 52° 100° (E) 11:37:05 437.445
HO-68 30 Jan 11:38:01 11:39:30 10° 302° (WNW) 11:40:26 435.675
UKube-1 30 Jan 11:41:14 11:43:53 15° 291° (WNW) 11:46:21 .
VERMONT LUNAR 30 Jan 11:42:02 11:45:04 27° 9° (N) 11:48:09 437.305
ANTELSAT 30 Jan 11:42:02 11:44:29 13° 269° (W) 11:46:38 437.575/2403.000
SO-50 30 Jan 11:42:22 11:44:36 13° 315° (NW) 11:46:40 436.795
TISAT 1 30 Jan 11:43:13 11:45:41 15° 92° (E) 11:48:20 437.305
NANOSAT C BR1 30 Jan 11:43:40 11:46:45 19° 266° (W) 11:49:42 145.865
TIGRISAT 30 Jan 11:49:56 11:51:33 11° 270° (W) 11:52:51 435.000
HUMSAT D 30 Jan 11:51:06 11:54:26 22° 289° (WNW) 11:57:37 437.325/437.525
ZACube-1 30 Jan 12:00:01 12:01:13 11° 293° (WNW) 12:02:07 437.345
QB50P2 30 Jan 12:00:13 12:02:00 12° 269° (W) 12:03:34 145.880/145.840
GONETS M04 30 Jan 12:15:54 12:24:06 46° 77° (ENE) 12:32:24
AISAT 30 Jan 12:35:29 12:36:46 11° 293° (WNW) 12:37:47 437.250
ESTCUBE 1 30 Jan 12:40:20 12:43:51 22° 289° (WNW) 12:47:14 437.505/2401.250
AIST 1 30 Jan 12:43:30 12:45:30 13° 288° (WNW) 12:47:17
SWISSCUBE 30 Jan 12:43:44 12:45:06 11° 90° (E) 12:46:48 437.505
SPROUT 30 Jan 12:44:43 12:49:06 86° 283° (WNW) 12:53:26 437.525
PHONESAT 2.4 30 Jan 12:48:27 12:51:50 35° 14° (NNE) 12:55:14 2401.200-2431.200
RS-15 30 Jan 12:52:06 13:01:47 32° 44° (NE) 13:12:09 29.354- 29.394
Gurwin Techsat 1B 30 Jan 12:52:47 12:53:17 10° 64° (ENE) 12:54:09 435.225
BEESAT 2 30 Jan 12:53:30 12:55:45 14° 250° (WSW) 12:57:49 435.950
AIST 2 30 Jan 12:54:36 12:58:31 35° 247° (WSW) 13:02:19 435.215
BEESAT 30 Jan 12:58:02 13:00:49 16° 92° (E) 13:03:49 436.000
ITUPSAT 1 30 Jan 13:02:30 13:05:35 18° 93° (E) 13:08:52 437.325
Oscar 19 30 Jan 13:03:31 13:08:39 66° 75° (ENE) 13:13:50 437.125/150
CUBEBUG 1 30 Jan 13:06:56 13:08:43 12° 292° (WNW) 13:10:16 437.445
PCSat 30 Jan 13:07:32 13:12:09 28° 55° (NE) 13:16:50 145.827
TISAT 1 30 Jan 13:17:44 13:21:40 35° 287° (WNW) 13:25:32 437.305
VERMONT LUNAR 30 Jan 13:19:59 13:23:30 81° 25° (NNE) 13:27:01 437.305
ITAMSAT 1 30 Jan 13:23:10 13:27:44 33° 71° (ENE) 13:32:23 435.822/435.867
GONETS M04 30 Jan 14:13:15 14:20:43 32° 273° (W) 14:27:56
CUSAT 1 30 Jan 14:17:29 14:19:29 12° 60° (ENE) 14:21:37 437.405
SWISSCUBE 30 Jan 14:18:42 14:23:24 57° 285° (WNW) 14:28:06 437.505
AO-7 30 Jan 14:19:06 14:25:03 23° 60° (ENE) 14:31:20 29.400- 29.500
STARS 30 Jan 14:24:42 14:27:19 16° 93° (E) 14:30:06 437.465
PHONESAT 2.4 30 Jan 14:26:56 14:30:31 58° 210° (SSW) 14:34:07 2401.200-2431.200
Gurwin Techsat 1B 30 Jan 14:27:20 14:32:39 83° 256° (WSW) 14:38:00 435.225
KKS-1 30 Jan 14:33:02 14:37:01 32° 97° (E) 14:41:03 437.445
BEESAT 30 Jan 14:34:24 14:38:55 42° 287° (WNW) 14:43:23 436.000
ITUPSAT 1 30 Jan 14:39:13 14:43:40 38° 287° (WNW) 14:48:05 437.325
Oscar 19 30 Jan 14:46:41 14:48:33 11° 270° (W) 14:50:02 437.125/150
PCSat 30 Jan 14:50:46 14:55:35 32° 251° (WSW) 15:00:18 145.827
VERMONT LUNAR 30 Jan 14:59:02 15:01:20 16° 217° (SW) 15:03:35 437.305
ITAMSAT 1 30 Jan 15:03:09 15:07:18 24° 265° (W) 15:11:21 435.822/435.867
RS-15 30 Jan 15:03:49 15:15:15 72° 245° (WSW) 15:27:08 29.354- 29.394
AUBIESAT-1 30 Jan 15:05:14 15:06:00 11° 98° (E) 15:07:00 437.475
O/OREOS (USA 219) 30 Jan 15:16:21 15:19:44 22° 103° (ESE) 15:23:16 437.305
HORYU 2 30 Jan 15:16:56 15:21:27 79° 258° (WSW) 15:25:58 437.375
DANDE 30 Jan 15:36:17 15:42:26 70° 80° (E) 15:46:53 436.750
JUGNU 30 Jan 15:43:09 15:45:17 12° 165° (SSE) 15:47:33 437.505
CUSAT 1 30 Jan 15:58:05 16:03:33 53° 268° (W) 16:07:35 437.405
STARS 30 Jan 15:59:52 16:03:58 36° 287° (WNW) 16:07:59 437.465
M-CUBED/EXP-1 PRIME 30 Jan 16:05:45 16:09:06 79° 288° (WNW) 16:12:37 437.505
AO-7 30 Jan 16:08:52 16:17:12 71° 256° (WSW) 16:25:34 29.400- 29.500
KKS-1 30 Jan 16:10:16 16:13:29 19° 290° (WNW) 16:16:33 437.445
JAS-2 30 Jan 16:19:18 16:24:50 66° 76° (ENE) 16:30:02 435.910
MOZHAYETS 4 30 Jan 16:22:52 16:26:01 19° 93° (E) 16:29:20
AUBIESAT-1 30 Jan 16:38:05 16:41:04 29° 290° (WNW) 16:44:08 437.475
O/OREOS (USA 219) 30 Jan 16:55:13 16:59:03 26° 297° (WNW) 17:02:51 437.305
Cubesat XI-IV 30 Jan 17:17:12 17:21:43 30° 70° (ENE) 17:26:23 437.490
RS-15 30 Jan 17:22:03 17:26:25 12° 259° (WSW) 17:29:26 29.354- 29.394
JUGNU 30 Jan 17:29:29 17:33:40 20° 174° (S) 17:37:53 437.505
CUTE-I 30 Jan 17:36:10 17:41:11 46° 73° (ENE) 17:46:17 437.470
PRISM 30 Jan 17:45:16 17:46:46 12° 92° (E) 17:48:32 437.425
MOZHAYETS 4 30 Jan 17:59:16 18:03:21 32° 287° (WNW) 18:07:23
JAS-2 30 Jan 18:08:51 18:10:28 11° 269° (W) 18:11:38 435.910
SRMSAT 30 Jan 18:13:02 18:16:47 17° 169° (S) 18:20:36 437.500
CUBESAT XI-V 30 Jan 18:19:07 18:22:57 25° 95° (E) 18:26:51 437.345
SO-50 30 Jan 18:35:00 18:38:49 23° 51° (NE) 18:42:44 436.795
Cubesat XI-IV 30 Jan 18:57:18 19:01:49 27° 264° (W) 19:06:16 437.490
STRAND 1 30 Jan 19:02:46 19:07:47 51° 100° (E) 19:12:47 437.568
YUBILEINY 30 Jan 19:08:52 19:16:52 45° 90° (E) 19:25:01 435.215
BRITE-PL 30 Jan 19:09:35 19:12:02 14° 65° (ENE) 19:14:50 437.365/2234.400
JUGNU 30 Jan 19:17:42 19:22:05 21° 184° (S) 19:26:29 437.505
CUTE-I 30 Jan 19:17:56 19:21:33 18° 268° (W) 19:24:57 437.470
PRISM 30 Jan 19:18:37 19:22:33 41° 286° (WNW) 19:26:29 437.425
CANX-2 30 Jan 19:48:09 19:51:25 22° 72° (ENE) 19:54:47 2200.000
AAUSAT CUBESAT 2 30 Jan 19:55:13 19:57:20 14° 70° (ENE) 19:59:38 437.432
CUBESAT XI-V 30 Jan 19:56:25 20:00:21 26° 288° (WNW) 20:04:11 437.345
SRMSAT 30 Jan 20:00:51 20:05:22 22° 179° (S) 20:09:53 437.500
HO-68 30 Jan 20:09:14 20:16:10 58° 71° (ENE) 20:23:10 435.675
CUTE 1.7 + AOD 2 30 Jan 20:11:19 20:15:16 37° 74° (ENE) 20:19:14 437.475
CINEMA 3 30 Jan 20:13:01 20:16:02 17° 68° (ENE) 20:19:18 145.822/145.860
SO-50 30 Jan 20:14:57 20:19:32 39° 247° (WSW) 20:24:03 436.795
Oscar 11 30 Jan 20:20:34 20:22:39 14° 69° (ENE) 20:24:57 145.826/435.025
GOMX 1 30 Jan 20:31:47 20:36:46 68° 75° (ENE) 20:42:06 467.674
DOVE 4 30 Jan 20:36:19 20:41:10 53° 75° (ENE) 20:46:18 437.250
SEEDS 30 Jan 20:39:18 20:43:33 71° 76° (ENE) 20:47:47 437.485
STRAND 1 30 Jan 20:43:25 20:46:37 16° 293° (WNW) 20:49:36 437.568
ISS 30 Jan 20:44:19 20:47:30 54° 134° (SE) 20:50:43 145.825
BRITE-PL 30 Jan 20:45:01 20:49:56 62° 260° (W) 20:55:18 437.365/2234.400
UKube-1 30 Jan 20:55:48 20:58:55 20° 70° (ENE) 21:02:08 .
COMPASS 1 30 Jan 21:03:27 21:07:40 70° 259° (W) 21:11:53 437.405
HUMSAT D 30 Jan 21:05:47 21:06:50 11° 68° (ENE) 21:08:10 437.325/437.525
JUGNU 30 Jan 21:07:14 21:10:30 15° 193° (SSW) 21:13:40 437.505
